Weather in Uzgen

Kyrgyzstan     40°46′13″N   73°17′57″E
temp.,
°C
wind,
m/s
gust,
m/s
humid.,
%
clouds,
%
prec.,
mm/h
press.,
hPa
HPBL,
m
14 april, wed
wed1400:00+12sse1169100 0.1 102236
03:00+11e117055 0.0 102034
06:00+8ese22715 0.0 102019
09:00+13e225096 0.0 1019401
12:00+17n1237100 0.0 10161174
15:00+19nw2237100 0.0 10141220
18:00+19nw1140100 0.0 1013764
21:00+14ese115393 0.0 101412
15 april, thu
thu1500:00+13ese2257100 0.0 101417
03:00+11ese2251100 0.0 101316
06:00+11ese2247100 0.0 101424
09:00+15e1241100 0.0 1014229
12:00+20wnw2132100 0.0 10131106
15:00+21wnw3231100 0.0 10111799
18:00+20wnw4441100 0.0 1011945
21:00+14se1169100 1.4 101516
16 april, fri
fri1600:00+13e3372100 2.1 101554
03:00+12ese2268100 0.0 101324
06:00+11ese2266100 0.0 101415
09:00+15ene0151100 0.0 1015267
12:00+19wnw324316 0.0 10141244
15:00+21wnw4339100 0.1 10131908
18:00+20wnw2344100 0.1 1013852
21:00+15ese225197 0.1 101513
17 april, sat
sat1700:00+13ese2261100 0.1 101527
03:00+13ese2262100 0.0 101319
06:00+12se2262100 0.0 101315
09:00+16ne1151100 0.0 1013300
12:00+20w3333100 0.0 10121284
15:00+20wnw3328100 0.0 10111793
18:00+19nnw1135100 0.0 1011413
21:00+15ese1238100 0.0 101313
18 april, sun
sun1800:00+15sw3540100 0.0 1014132
03:00+13se3347100 0.1 101556
06:00+11se4758100 0.1 1017251
09:00+11s4765100 0.3 10191196
12:00+11sse2272100 1.8 1020642
15:00+13ese3459100 0.6 1020974
18:00+12ene336899 2.6 1021231
21:00+10sse1266100 0.4 102024